Temp
18 19 19 19 20 20 20 19 18 19 20 20 20 20 20 20 20 20 21 26 27 27 26 26 27 26 27 29 28 28 30 31 30 30 32 33 32 31 30 32 32 31 30 28 22
19 19 19 18 19 20 19 19 19 19 20 20 20 20 20 20 20 18 26 26 26 27 25 27 28 27 29 28 28 31 30 31 30 30 32 32 31 31 32 32 32 31 26 23 22
18 19 18 18 18 19 19 19 19 19 20 20 20 20 20 20 21 26 26 26 25 26 26 26 26 28 28 28 28 28 30 31 31 31 31 32 32 25 29 29 27 28 25 24 24
18 18 18 17 17 19 19 18 19 19 20 20 20 20 20 19 27 26 26 27 25 25 26 26 27 28 28 29 28 29 29 31 32 32 29 26 26 22 25 26 26 26 25 24 25
18 18 18 18 18 18 19 19 19 19 20 20 20 20 19 22 25 26 26 26 25 25 26 26 27 27 29 28 28 29 30 29 30 28 25 24 23 22 22 23 23 22 21 21 21
18 18 18 19 19 19 19 19 19 19 19 19 19 19 19 24 25 25 25 25 25 25 24 26 27 27 28 28 29 30 30 27 26 27 25 21 21 22 21 22 21 20 20 19 18
18 17 19 20 19 19 19 19 19 19 19 19 19 18 19 25 24 24 25 26 26 26 26 24 26 28 27 27 28 28 29 27 23 24 25 24 19 18 20 21 20 19 19 18 17
17 17 19 19 19 19 19 19 19 19 19 18 18 17 22 24 24 24 25 25 25 25 25 25 25 27 28 27 28 29 29 30 22 24 22 24 17 18 19 19 18 18 18 17 16
16 16 18 19 19 19 19 19 19 18 18 18 17 18 24 24 24 26 25 27 24 24 25 25 27 26 27 29 29 28 30 27 23 21 22 23 17 17 17 17 16 16 16 16 15
17 17 18 18 19 19 19 18 18 18 17 17 16 20 24 27 26 26 25 26 28 26 27 27 27 28 27 29 29 29 26 21 21 19 19 18 16 16 16 16 15 15 15 14 14
17 19 19 18 18 18 18 17 19 19 16 24 25 24 25 26 26 26 25 26 28 28 28 26 28 28 29 28 28 26 24 20 19 20 18 17 16 15 15 15 15 14 14 13 13
17 19 19 18 18 18 17 19 21 21 22 21 21 22 22 24 27 27 26 28 28 27 26 27 27 28 27 26 26 25 23 20 19 20 18 17 16 15 15 14 13 13 13 12 12
17 18 18 18 18 17 17 20 20 20 22 24 22 23 26 25 27 28 29 27 28 27 27 27 28 27 27 25 25 25 25 21 20 19 19 19 17 17 16 15 14 13 13 12 11
17 17 18 19 17 18 18 21 20 20 23 25 25 26 25 27 28 27 28 29 27 28 26 27 27 27 27 27 27 25 26 24 20 22 22 20 22 17 16 15 14 13 12 12 11
17 17 18 18 18 18 20 20 20 21 24 26 26 26 26 29 28 27 25 28 28 27 27 28 28 28 28 28 27 28 26 24 23 24 23 21 23 16 15 15 13 12 12 11 11
17 18 18 17 18 21 21 21 21 24 23 26 27 27 27 28 27 26 27 26 26 27 26 28 26 27 28 27 27 26 25 24 24 25 25 20 22 18 15 12 12 12 11 10 10
18 18 17 18 21 21 21 22 24 23 26 26 26 27 27 27 26 25 25 25 27 26 26 26 27 26 26 28 27 26 26 24 24 25 26 18 20 16 12 11 11 11 11 10 10
18 18 18 21 21 20 20 25 22 23 24 25 25 26 27 26 24 24 24 25 22 24 25 26 25 25 25 25 28 27 27 29 26 25 25 18 20 14 12 11 11 10 10 10 10
19 17 18 20 22 20 24 23 23 23 23 24 25 26 26 25 26 24 23 24 22 22 26 25 25 24 24 24 24 26 27 24 25 21 24 17 13 12 12 12 11 10 10 9 9
18 17 18 19 21 20 23 21 22 22 23 23 24 24 25 24 25 25 23 21 22 21 20 23 25 22 23 23 24 25 23 26 25 25 25 18 16 17 12 11 10 10 9 9 9
17 21 18 19 20 22 23 22 21 22 21 23 23 23 23 23 23 23 23 20 20 21 21 21 23 23 23 21 21 24 24 21 23 22 25 25 19 12 11 10 9 9 9 9 9
16 22 18 19 22 17 21 20 19 21 21 21 22 21 21 21 21 21 22 20 18 19 22 19 21 22 20 18 18 18 18 19 24 22 18 21 16 11 10 9 9 9 8 9 9
19 19 19 20 22 21 19 20 20 20 19 20 20 19 19 19 21 19 18 18 18 19 20 19 18 21 20 20 18 18 16 16 17 18 18 22 17 10 10 9 9 8 8 8 8
19 21 20 17 16 19 20 19 20 18 18 18 18 19 19 18 17 18 18 18 18 17 15 16 15 17 22 19 17 17 15 15 17 21 18 16 11 10 10 9 9 9 9 9 8
16 16 15 17 17 16 17 17 18 17 17 17 18 17 17 19 18 18 18 18 17 16 15 15 14 14 14 14 14 13 14 15 16 14 18 13 13 11 10 9 9 9 8 8 9
18 18 14 14 14 16 14 15 16 16 16 16 16 16 16 17 17 18 18 17 18 16 15 13 13 14 13 13 14 12 12 13 13 13 12 12 10 10 9 9 8 8 8 8 8
11 12 17 12 14 16 14 14 15 15 15 15 15 16 15 14 14 14 14 13 15 17 15 14 14 15 14 14 15 15 11 11 10 12 12 13 11 9 9 9 8 8 8 8 8
Height
787 786 785 784 783 783 784 784 784 784 784 784 784 784 784 782 782 780 779 774 772 775 777 779 781 782 783 784 785 786 800 804 805 804 792 777 780 772 773 774 773 773 776 780 787
785 784 783 782 782 782 782 782 782 782 782 783 783 783 782 781 780 777 770 770 771 772 776 778 780 782 784 786 787 786 800 799 793 791 788 781 780 777 775 777 781 781 793 802 808
783 782 781 780 780 780 780 780 781 781 781 782 782 781 781 780 780 768 767 768 771 773 775 777 780 781 786 786 789 792 797 788 788 785 782 785 785 803 791 794 802 795 800 805 810
782 781 780 779 779 778 778 778 779 779 780 780 780 781 781 781 781 766 765 764 768 773 775 777 779 784 787 789 787 794 789 784 781 783 790 802 804 818 810 811 804 800 805 810 812
780 779 778 778 777 776 776 777 777 778 779 779 780 781 781 781 771 766 763 763 768 773 775 776 779 783 787 787 789 790 788 787 784 796 806 810 821 830 828 830 821 814 810 819 824
778 777 776 776 775 775 775 776 776 777 778 779 780 780 782 782 766 766 766 766 769 773 775 776 777 777 783 785 786 781 785 794 799 798 807 823 830 824 843 838 828 825 824 829 832
776 775 774 774 774 774 774 775 776 776 778 778 779 780 780 770 766 766 768 769 769 772 775 776 776 776 780 787 782 785 792 794 813 806 805 807 838 858 854 847 839 838 838 839 841
775 773 773 773 773 773 774 775 775 776 777 778 779 780 774 765 765 767 768 769 770 773 775 775 776 777 779 782 785 789 790 798 821 808 816 808 871 867 860 855 853 850 847 847 848
774 773 772 771 772 773 774 775 776 777 778 779 780 780 770 764 764 763 766 766 769 773 776 777 777 782 782 787 793 794 797 806 821 821 818 819 868 872 868 864 863 862 859 857 855
773 772 771 771 772 773 774 776 777 778 778 779 780 782 763 761 759 760 764 766 768 772 777 779 781 785 789 788 803 796 811 833 835 848 836 852 869 875 873 869 868 868 867 866 863
771 771 770 770 772 774 776 777 781 780 779 767 765 764 760 759 758 759 761 766 767 771 781 783 787 793 785 785 788 795 809 835 844 842 851 865 871 877 877 872 870 871 871 871 869
770 769 769 771 773 774 775 775 774 776 773 763 765 764 760 760 761 757 760 765 771 780 782 787 791 781 784 788 791 799 817 837 843 843 850 867 875 880 879 879 879 878 876 874 872
769 768 769 771 773 775 774 773 772 774 775 762 760 759 755 757 757 757 757 762 771 782 782 787 782 780 783 792 799 801 801 823 832 847 853 849 869 873 877 879 880 880 881 879 878
768 768 768 771 777 772 772 770 770 771 779 766 759 752 753 752 759 754 755 758 770 776 781 781 775 778 781 783 784 804 790 804 825 825 834 839 848 871 874 876 879 881 881 881 880
767 767 767 770 771 772 772 769 768 770 797 761 757 748 751 753 753 759 756 757 769 773 778 779 777 777 779 773 775 776 780 794 809 812 820 839 832 868 875 875 882 884 886 887 885
766 766 767 770 770 769 768 767 770 783 796 763 752 756 758 754 758 758 757 758 763 771 775 772 769 770 769 770 772 776 793 806 811 809 816 839 833 861 871 886 886 888 890 890 887
765 764 766 767 768 768 767 769 785 794 764 769 764 756 756 761 765 766 772 775 776 786 787 780 776 772 771 772 775 778 789 816 825 820 812 845 838 864 884 890 892 892 892 891 890
764 764 764 765 766 767 768 772 800 782 774 764 762 760 762 760 772 774 777 780 785 782 787 788 794 781 777 779 771 775 776 779 810 812 807 843 839 868 886 891 892 893 892 890 888
764 764 764 765 765 767 768 788 787 783 775 774 764 766 766 764 765 774 781 780 784 784 782 788 788 780 781 779 781 777 779 785 793 812 806 848 875 881 884 886 889 891 892 892 892
764 764 765 764 765 768 773 790 783 778 775 773 778 773 772 772 770 773 781 788 786 786 786 783 790 788 783 782 780 778 785 787 789 805 807 838 850 846 878 882 888 890 892 893 893
764 763 767 766 767 770 782 785 782 776 777 779 778 777 778 777 778 779 781 791 789 787 786 786 785 789 785 799 799 788 787 798 796 806 794 795 829 871 877 885 889 893 895 893 893
765 767 769 768 774 787 781 784 784 780 778 778 778 781 782 785 785 786 785 791 793 790 786 793 792 796 804 810 806 806 810 807 792 805 822 810 844 878 882 890 892 890 897 893 892
767 769 770 769 778 782 785 784 785 783 787 785 785 786 787 790 790 793 794 793 792 791 791 793 806 803 807 807 808 810 819 819 816 814 826 809 839 879 884 887 890 893 893 892 891
768 772 774 778 788 784 784 789 788 788 791 791 790 787 790 794 797 795 796 794 793 795 799 798 817 810 790 805 813 818 826 825 816 804 824 837 864 879 881 885 888 890 891 890 889
773 784 788 792 791 794 791 795 794 799 795 793 792 798 797 795 797 795 795 794 795 797 802 804 821 825 828 826 825 833 831 826 825 833 818 848 853 868 879 884 887 890 890 888 886
776 781 793 801 802 796 802 807 803 804 804 802 803 802 800 798 797 793 794 794 792 800 804 812 828 822 835 834 832 838 842 842 842 844 848 854 868 877 883 887 889 889 889 888 886
786 787 786 810 805 802 814 814 810 806 808 808 808 803 804 807 804 803 802 803 800 798 806 810 819 820 828 833 830 829 849 850 856 850 852 849 863 879 883 885 887 887 888 887 886
Wind_Speed
8 8 8 8 8 8 7 7 7 8 8 7 6 6 7 8 10 9 6 7 3 14 10 3 3 5 4 3 2 2 3 6 1 1 5 10 8 2 2 3 2 2 1 5 21
9 9 8 8 9 8 6 6 6 7 7 6 5 5 6 8 9 9 12 7 6 11 12 8 4 5 3 2 2 4 6 6 2 1 7 11 5 7 3 4 7 4 17 19 17
11 10 9 8 8 7 6 5 5 5 5 5 4 4 5 6 3 4 1 7 12 12 10 7 8 3 3 2 3 3 10 8 3 7 9 9 13 29 21 14 17 13 15 16 18
12 10 9 8 8 6 6 4 4 4 4 4 3 3 3 2 2 0 7 6 19 12 10 8 4 5 5 7 4 6 5 9 9 4 6 9 8 30 30 14 18 22 23 23 19
12 10 9 8 7 6 5 4 4 3 3 3 3 2 1 2 6 4 5 12 22 15 7 5 5 5 5 5 6 6 5 7 7 13 23 25 24 29 28 20 24 28 32 26 25
12 10 8 8 6 5 4 3 3 3 3 3 2 2 1 4 2 2 10 20 16 10 6 7 6 4 5 4 4 8 6 8 15 15 16 26 18 22 22 19 27 28 29 26 30
12 10 8 6 5 4 2 1 2 3 3 3 2 1 2 9 3 7 13 8 13 6 4 4 5 2 5 4 1 3 5 5 24 7 2 5 30 20 17 18 25 26 25 26 32
13 10 7 4 3 1 1 3 3 3 3 3 3 1 6 2 5 7 9 5 7 6 1 1 5 4 1 3 2 2 2 7 17 7 9 7 9 16 16 17 22 22 22 23 28
12 9 5 2 1 2 4 5 5 4 3 3 1 0 5 3 5 8 13 4 7 5 4 7 2 3 3 3 2 1 6 2 5 19 4 8 12 13 15 17 19 19 20 19 21
13 8 3 0 3 5 7 6 5 4 2 1 1 3 5 2 2 5 13 9 4 9 5 2 2 2 2 5 9 6 7 10 9 14 27 25 19 14 15 17 18 18 18 19 20
12 7 1 4 6 8 9 4 2 2 3 5 1 3 3 5 2 5 8 9 3 2 4 2 4 7 9 7 2 9 10 18 17 8 18 19 18 15 14 18 19 18 18 19 19
10 5 2 6 7 9 5 2 0 2 6 8 10 7 7 3 2 3 13 7 5 4 5 3 6 6 4 5 11 13 23 15 10 14 16 16 18 14 15 17 17 17 18 20 20
10 4 3 6 8 7 5 4 1 2 3 4 4 4 3 8 4 6 12 5 5 6 7 5 3 8 6 9 15 15 17 18 13 9 17 20 9 7 10 14 15 17 16 18 19
10 4 5 9 4 3 3 2 11 6 2 2 3 3 5 3 2 1 7 5 3 8 7 5 2 6 6 8 15 11 16 20 25 13 6 16 5 4 3 11 16 17 18 18 19
9 3 8 12 3 3 0 11 5 3 2 2 2 2 1 5 7 2 3 2 8 6 5 3 5 5 6 3 16 4 27 26 23 9 12 10 4 5 1 4 13 15 16 16 17
8 4 9 8 3 2 10 5 2 2 2 2 4 5 6 3 2 2 2 6 2 4 1 4 1 2 1 1 8 17 21 10 13 2 6 3 5 5 4 3 9 12 13 15 16
7 3 12 9 2 1 2 2 2 3 4 3 1 4 6 4 3 2 3 3 2 3 1 0 1 3 3 4 10 9 18 5 6 6 5 3 4 6 7 5 8 10 12 13 13
4 2 7 11 6 4 2 2 2 2 3 3 3 2 8 4 2 2 4 4 2 1 2 2 5 4 7 3 2 14 8 6 9 6 5 0 4 6 8 5 6 7 9 12 14
3 1 2 1 11 8 1 2 3 2 4 7 5 3 4 2 3 3 1 4 2 1 3 4 3 1 4 5 3 3 5 2 3 3 4 5 3 5 6 2 6 8 8 10 11
2 1 3 4 7 3 2 2 2 2 5 3 3 3 3 1 4 5 6 2 3 1 2 3 3 2 2 1 9 2 3 3 1 6 9 4 3 4 8 1 6 8 10 10 11
1 1 8 9 3 3 2 3 2 1 3 4 2 2 2 2 1 3 3 2 1 1 1 2 3 3 1 7 3 1 2 4 3 2 4 6 4 5 6 3 4 7 8 8 9
1 2 5 1 2 1 2 2 4 3 7 3 2 4 3 2 1 1 3 1 2 2 2 1 1 2 3 5 6 3 3 0 4 4 2 3 5 5 5 4 2 5 5 8 9
2 2 6 1 2 1 0 2 3 4 5 5 2 4 3 2 2 1 1 1 2 1 2 4 1 4 3 4 2 3 3 3 5 2 2 3 4 5 4 3 3 3 6 8 9
1 2 3 4 3 1 2 2 2 6 3 3 3 2 1 1 2 2 3 2 2 5 9 6 4 4 5 3 2 3 4 2 1 3 7 2 10 6 3 1 1 4 6 8 9
3 2 2 2 5 6 2 4 3 5 7 8 3 6 3 2 1 3 3 3 4 3 4 3 5 7 10 8 10 10 9 5 5 5 4 12 10 9 5 1 2 4 7 9 9
2 2 3 3 3 5 9 7 6 3 7 5 4 8 4 2 3 2 4 3 1 3 3 2 7 7 8 10 13 16 12 16 16 16 15 14 9 5 5 3 2 2 5 8 10
4 3 2 6 4 3 4 4 7 2 4 5 4 2 9 8 4 4 7 7 3 2 3 3 9 4 7 4 5 8 7 8 9 7 11 5 6 9 7 4 1 2 4 7 9
Wind_Direction
328 322 321 320 313 308 290 281 274 266 262 270 282 289 292 296 295 287 249 232 206 204 189 171 124 101 109 117 121 172 183 232 241 228 340 335 343 87 76 143 114 112 87 96 141
334 326 319 317 312 307 295 284 273 264 260 264 274 283 291 303 302 255 265 219 208 191 204 180 147 121 97 116 121 180 204 229 174 241 302 315 326 352 297 55 22 344 50 62 75
338 327 320 315 310 306 293 285 276 265 253 256 266 278 297 318 285 239 157 202 183 148 159 142 118 103 123 179 161 161 216 227 226 235 267 351 24 34 8 26 355 24 88 73 68
339 329 320 316 314 311 302 285 271 265 248 249 259 277 303 319 195 121 307 236 181 165 143 124 114 139 157 172 162 188 220 227 253 323 36 45 21 46 41 40 65 79 75 62 58
337 330 319 313 315 311 301 290 264 249 233 233 228 247 298 248 257 332 358 142 157 164 159 140 152 147 159 154 150 195 182 211 316 81 74 67 59 59 44 47 62 68 66 59 54
336 329 321 312 317 315 302 267 234 225 213 202 203 179 214 254 289 308 142 140 155 156 149 156 175 189 115 164 208 183 178 67 36 96 93 72 50 55 32 48 60 59 61 58 53
337 330 324 320 323 324 305 231 192 181 172 176 182 147 238 248 159 103 151 158 163 161 151 199 162 170 141 146 211 156 150 160 27 345 94 280 37 38 37 45 61 60 60 56 49
344 335 324 326 329 2 138 151 157 150 156 163 163 128 252 227 223 228 184 163 157 196 154 180 172 85 47 116 73 204 167 184 34 12 22 69 63 35 34 53 57 54 54 53 47
339 337 336 337 72 123 133 132 135 139 145 145 111 325 268 228 243 230 204 184 157 175 133 101 111 71 142 157 190 102 188 64 83 15 53 86 107 49 44 54 55 49 45 42 41
340 335 340 280 146 142 134 129 124 118 121 134 249 279 247 138 197 173 182 170 126 121 119 136 72 136 133 198 210 193 130 68 59 58 85 91 93 67 51 55 52 44 40 38 38
344 330 281 163 157 146 132 114 199 178 208 224 199 272 291 303 220 187 167 154 121 137 163 82 189 210 218 219 113 107 106 115 133 129 67 87 85 64 50 49 43 36 30 28 27
349 328 215 173 157 158 164 223 269 35 301 237 247 272 269 265 274 145 151 151 170 174 135 158 228 215 195 183 134 123 123 118 65 111 106 109 87 74 56 52 45 33 27 20 15
351 331 204 163 149 181 215 218 60 248 270 278 201 219 223 172 197 179 176 136 150 157 181 204 141 142 184 154 145 160 159 166 139 113 131 126 94 85 69 57 45 37 28 25 16
347 324 184 152 171 196 234 213 292 194 310 253 234 233 155 195 141 28 183 157 157 208 173 227 187 210 194 209 186 182 194 151 147 153 174 213 150 167 63 44 33 25 21 15 12
341 320 183 171 143 199 151 310 134 164 316 57 155 137 159 189 138 71 4 135 185 177 191 152 198 231 245 231 184 224 161 168 169 153 139 172 214 118 85 25 16 16 15 13 12
332 329 184 191 237 232 324 137 166 274 254 58 144 160 162 180 83 120 124 48 70 145 306 256 295 251 292 112 171 122 127 112 164 188 228 152 243 156 163 34 5 11 11 10 10
325 327 179 184 173 48 87 167 315 229 339 14 10 174 173 146 93 58 56 57 199 193 209 259 151 332 2 185 144 134 158 134 186 213 241 114 210 70 130 77 20 3 4 8 11
316 322 205 209 225 332 160 86 254 288 307 352 340 284 187 151 67 104 126 147 77 144 149 223 191 10 359 343 204 176 226 219 213 198 191 93 179 143 139 96 33 17 5 4 7
341 59 261 304 242 266 95 153 245 243 320 328 314 192 162 103 132 134 99 160 155 200 221 176 197 309 43 25 312 160 212 30 119 99 185 134 135 167 173 79 23 16 6 5 2
5 7 16 315 143 125 85 229 262 276 323 316 322 8 195 79 187 200 178 136 162 24 260 170 185 45 10 229 58 7 96 176 142 231 246 182 211 132 189 52 17 16 9 2 358
34 108 1 132 85 63 198 229 280 99 353 350 337 325 49 24 60 184 139 107 21 105 117 160 264 138 232 23 353 50 131 58 88 341 271 247 128 130 137 108 52 10 4 6 358
87 88 8 19 77 36 168 182 359 359 17 9 58 33 36 57 80 196 220 35 357 284 185 84 87 111 85 94 71 70 96 33 254 197 52 348 122 127 126 121 33 40 357 6 359
68 94 26 15 162 164 156 102 52 25 32 18 57 28 30 67 286 212 172 51 14 124 161 162 58 146 155 201 167 62 48 95 108 119 141 254 117 154 138 142 61 357 353 352 352
113 114 48 52 24 49 117 24 100 32 73 360 15 118 115 117 27 183 179 57 82 95 72 83 73 8 264 45 75 114 30 3 279 197 147 84 145 174 160 162 341 353 349 343 341
19 81 2 35 39 54 56 12 33 12 358 19 86 29 315 246 205 214 194 163 89 116 65 80 99 90 66 78 94 89 68 81 102 108 245 144 145 163 156 101 337 331 334 342 351
59 111 59 55 355 43 17 13 30 30 9 10 37 347 345 287 303 280 190 217 159 84 81 59 131 125 69 97 98 90 74 81 86 92 95 122 122 148 150 178 232 298 340 349 354
33 73 86 9 29 66 23 27 30 322 57 51 328 7 26 350 345 54 86 69 77 136 118 113 148 163 144 147 172 94 46 87 101 93 136 152 126 158 168 181 197 335 349 350 350